| time (UTC) | temp F | wind direction | speed MPH | gust MPH | rain 1hr in | rain 24hr in | rain mn in | humidity % | barometer mb |
| 20260504214308 | 72 | 142 | 1.0 | 3.0 | 0.00 | 0.00 | 0.00 | 30 | 1005.8 |
| 20260504213804 | 71 | 183 | 3.0 | 8.0 | 0.00 | 0.00 | 0.00 | 30 | 1005.7 |
| 20260504213300 | 71 | 179 | 3.0 | 9.0 | 0.00 | 0.00 | 0.00 | 30 | 1005.8 |
| 20260504212758 | 71 | 201 | 4.0 | 9.0 | 0.00 | 0.00 | 0.00 | 30 | 1005.7 |
| 20260504212254 | 72 | 126 | 2.0 | 4.0 | 0.00 | 0.00 | 0.00 | 30 | 1005.8 |
| 20260504211752 | 72 | 157 | 2.0 | 3.0 | 0.00 | 0.00 | 0.00 | 29 | 1005.8 |
| 20260504211247 | 72 | 194 | 7.0 | 13.0 | 0.00 | 0.00 | 0.00 | 29 | 1006.0 |
| 20260504210745 | 72 | 224 | 2.0 | 8.0 | 0.00 | 0.00 | 0.00 | 29 | 1005.7 |
| 20260504210242 | 72 | 172 | 1.0 | 8.0 | 0.00 | 0.00 | 0.00 | 29 | 1005.9 |
| 20260504205739 | 73 | 167 | 6.0 | 11.0 | 0.00 | 0.00 | 0.00 | 28 | 1005.8 |
| 20260504205237 | 73 | 205 | 3.0 | 3.0 | 0.00 | 0.00 | 0.00 | 29 | 1005.8 |
| 20260504204735 | 74 | 205 | 2.0 | 3.0 | 0.00 | 0.00 | 0.00 | 28 | 1005.7 |
| 20260504204233 | 74 | 195 | 4.0 | 6.0 | 0.00 | 0.00 | 0.00 | 28 | 1005.7 |
| 20260504203732 | 75 | 195 | 6.0 | 8.0 | 0.00 | 0.00 | 0.00 | 26 | 1005.8 |
| 20260504203229 | 74 | 155 | 3.0 | 4.0 | 0.00 | 0.00 | 0.00 | 28 | 1005.8 |
| 20260504202729 | 73 | 162 | 3.0 | 7.0 | 0.00 | 0.00 | 0.00 | 28 | 1005.6 |
| 20260504202226 | 74 | 181 | 1.0 | 8.0 | 0.00 | 0.00 | 0.00 | 28 | 1005.8 |
| 20260504201724 | 74 | 148 | 4.0 | 8.0 | 0.00 | 0.00 | 0.00 | 27 | 1005.8 |
| 20260504201221 | 73 | 162 | 2.0 | 8.0 | 0.00 | 0.00 | 0.00 | 28 | 1005.7 |
| 20260504200718 | 74 | 187 | 8.0 | 10.0 | 0.00 | 0.00 | 0.00 | 26 | 1005.8 |
| 20260504200214 | 73 | 195 | 2.0 | 4.0 | 0.00 | 0.00 | 0.00 | 27 | 1005.7 |
| 20260504195711 | 74 | 189 | 4.0 | 7.0 | 0.00 | 0.00 | 0.00 | 27 | 1005.8 |
| 20260504195207 | 73 | 39 | 4.0 | 7.0 | 0.00 | 0.00 | 0.00 | 27 | 1005.7 |
| 20260504194704 | 73 | 16 | 4.0 | 7.0 | 0.00 | 0.00 | 0.00 | 27 | 1005.9 |
| 20260504194200 | 73 | 149 | 8.0 | 10.0 | 0.00 | 0.00 | 0.00 | 27 | 1006.0 |
| 20260504193656 | 73 | 18 | 3.0 | 11.0 | 0.00 | 0.00 | 0.00 | 27 | 1005.8 |
| 20260504193154 | 74 | 195 | 4.0 | 6.0 | 0.00 | 0.00 | 0.00 | 28 | 1005.7 |
| 20260504192652 | 74 | 169 | 2.0 | 7.0 | 0.00 | 0.00 | 0.00 | 27 | 1005.9 |
| 20260504192150 | 74 | 193 | 4.0 | 8.0 | 0.00 | 0.00 | 0.00 | 27 | 1005.9 |
| 20260504191648 | 74 | 192 | 6.0 | 9.0 | 0.00 | 0.00 | 0.00 | 26 | 1006.0 |
| 20260504191144 | 74 | 193 | 2.0 | 3.0 | 0.00 | 0.00 | 0.00 | 26 | 1006.1 |
| 20260504190640 | 73 | 158 | 5.0 | 8.0 | 0.00 | 0.00 | 0.00 | 27 | 1006.0 |
| 20260504190137 | 74 | 193 | 6.0 | 14.0 | 0.00 | 0.00 | 0.00 | 26 | 1006.1 |
| 20260504185633 | 74 | 203 | 4.0 | 8.0 | 0.00 | 0.00 | 0.00 | 26 | 1005.9 |
| 20260504185130 | 73 | 191 | 1.0 | 6.0 | 0.00 | 0.00 | 0.00 | 27 | 1006.3 |
| 20260504184626 | 73 | 198 | 5.0 | 8.0 | 0.00 | 0.00 | 0.00 | 26 | 1006.1 |
| 20260504184121 | 73 | 165 | 8.0 | 14.0 | 0.00 | 0.00 | 0.00 | 26 | 1006.5 |
| 20260504183619 | 73 | 176 | 3.0 | 11.0 | 0.00 | 0.00 | 0.00 | 26 | 1006.3 |
| 20260504183116 | 72 | 218 | 1.0 | 10.0 | 0.00 | 0.00 | 0.00 | 27 | 1006.4 |
| 20260504182614 | 71 | 198 | 3.0 | 9.0 | 0.00 | 0.00 | 0.00 | 28 | 1006.3 |
| 20260504182111 | 72 | 218 | 2.0 | 11.0 | 0.00 | 0.00 | 0.00 | 27 | 1006.4 |
| 20260504181608 | 73 | 191 | 4.0 | 7.0 | 0.00 | 0.00 | 0.00 | 26 | 1006.5 |
| 20260504181106 | 72 | 146 | 2.0 | 13.0 | 0.00 | 0.00 | 0.00 | 28 | 1006.6 |
| 20260504180604 | 71 | 170 | 4.0 | 11.0 | 0.00 | 0.00 | 0.00 | 28 | 1006.6 |
| 20260504180103 | 71 | 193 | 3.0 | 11.0 | 0.00 | 0.00 | 0.00 | 27 | 1006.3 |
| 20260504175600 | 71 | 140 | 5.0 | 9.0 | 0.00 | 0.00 | 0.00 | 27 | 1006.5 |
| 20260504175056 | 71 | 183 | 3.0 | 9.0 | 0.00 | 0.00 | 0.00 | 28 | 1006.6 |
| 20260504174555 | 71 | 162 | 4.0 | 11.0 | 0.00 | 0.00 | 0.00 | 27 | 1006.7 |
| 20260504174051 | 71 | 287 | 6.0 | 10.0 | 0.00 | 0.00 | 0.00 | 27 | 1006.7 |
| 20260504173548 | 71 | 148 | 3.0 | 8.0 | 0.00 | 0.00 | 0.00 | 28 | 1006.5 |
| 20260504173045 | 72 | 190 | 3.0 | 10.0 | 0.00 | 0.00 | 0.00 | 27 | 1006.9 |
| 20260504172541 | 71 | 157 | 4.0 | 10.0 | 0.00 | 0.00 | 0.00 | 28 | 1006.9 |
| 20260504172038 | 71 | 125 | 4.0 | 8.0 | 0.00 | 0.00 | 0.00 | 28 | 1007.0 |
| 20260504171535 | 70 | 212 | 3.0 | 7.0 | 0.00 | 0.00 | 0.00 | 29 | 1007.1 |
| 20260504171032 | 71 | 168 | 4.0 | 13.0 | 0.00 | 0.00 | 0.00 | 28 | 1007.1 |
| 20260504170528 | 70 | 162 | 4.0 | 7.0 | 0.00 | 0.00 | 0.00 | 28 | 1007.0 |
| 20260504150912 | 66 | 145 | 5.0 | 6.0 | 0.00 | 0.00 | 0.00 | 33 | 1008.4 |
| 20260504150409 | 66 | 35 | 4.0 | 7.0 | 0.00 | 0.00 | 0.00 | 34 | 1008.4 |
| 20260504141130 | 64 | 183 | 6.0 | 9.0 | 0.00 | 0.00 | 0.00 | 35 | 1008.7 |
| 20260504140627 | 63 | 153 | 2.0 | 7.0 | 0.00 | 0.00 | 0.00 | 37 | 1008.8 |
| 20260504140122 | 63 | 340 | 5.0 | 8.0 | 0.00 | 0.00 | 0.00 | 37 | 1008.9 |
| 20260504130551 | 59 | 164 | 2.0 | 7.0 | 0.00 | 0.00 | 0.00 | 42 | 1009.7 |
| 20260504110438 | 48 | 145 | 1.0 | 7.0 | 0.00 | 0.00 | 0.00 | 56 | 1009.7 |
| 20260504100355 | 46 | 113 | 0.0 | 0.0 | 0.00 | 0.00 | 0.00 | 58 | 1010.0 |
| 20260504081748 | 44 | 48 | 0.0 | 0.0 | 0.00 | 0.00 | 0.00 | 64 | 1009.9 |
| 20260504081244 | 44 | 48 | 0.0 | 0.0 | 0.00 | 0.00 | 0.00 | 62 | 1009.9 |
| 20260504080741 | 44 | 63 | 0.0 | 0.0 | 0.00 | 0.00 | 0.00 | 62 | 1010.0 |
| 20260504080237 | 44 | 38 | 0.0 | 0.0 | 0.00 | 0.00 | 0.00 | 62 | 1010.0 |
| 20260504070205 | 44 | 144 | 0.0 | 0.0 | 0.00 | 0.00 | 0.00 | 57 | 1010.1 |
| 20260504060125 | 42 | 116 | 0.0 | 0.0 | 0.00 | 0.00 | 0.00 | 69 | 1009.9 |
| 20260504050554 | 39 | 65 | 0.0 | 0.0 | 0.00 | 0.00 | 0.00 | 81 | 1009.9 |
| 20260504045548 | 39 | 65 | 0.0 | 0.0 | 0.00 | 0.00 | 0.00 | 78 | 1010.0 |
| 20260504045043 | 38 | 66 | 0.0 | 0.0 | 0.00 | 0.00 | 0.00 | 77 | 1010.1 |
| 20260504044540 | 38 | 66 | 0.0 | 0.0 | 0.00 | 0.00 | 0.00 | 79 | 1010.1 |
| 20260504044037 | 38 | 66 | 0.0 | 0.0 | 0.00 | 0.00 | 0.00 | 79 | 1010.0 |
| 20260504043534 | 38 | 65 | 0.0 | 0.0 | 0.00 | 0.00 | 0.00 | 80 | 1010.2 |
| 20260504043032 | 38 | 66 | 0.0 | 0.0 | 0.00 | 0.00 | 0.00 | 80 | 1009.9 |
| 20260504042529 | 38 | 68 | 0.0 | 0.0 | 0.00 | 0.00 | 0.00 | 78 | 1010.0 |
| 20260504042026 | 38 | 72 | 0.0 | 0.0 | 0.00 | 0.00 | 0.00 | 77 | 1010.0 |
| 20260504041521 | 39 | 128 | 0.0 | 0.0 | 0.00 | 0.00 | 0.00 | 75 | 1010.1 |
| 20260504041017 | 39 | 132 | 0.0 | 0.0 | 0.00 | 0.00 | 0.00 | 72 | 1009.7 |
| 20260504040515 | 39 | 117 | 0.0 | 0.0 | 0.00 | 0.00 | 0.00 | 73 | 1010.1 |
| 20260504040012 | 38 | 83 | 0.0 | 0.0 | 0.00 | 0.05 | 0.05 | 74 | 1009.9 |
| 20260504035509 | 38 | 81 | 0.0 | 0.0 | 0.00 | 0.05 | 0.05 | 74 | 1010.0 |
| 20260504035005 | 38 | 61 | 0.0 | 0.0 | 0.00 | 0.05 | 0.05 | 75 | 1009.8 |
| 20260504034503 | 38 | 60 | 0.0 | 0.0 | 0.00 | 0.05 | 0.05 | 75 | 1009.7 |
| 20260504033959 | 39 | 60 | 0.0 | 0.0 | 0.00 | 0.05 | 0.05 | 74 | 1009.7 |
| 20260504033457 | 39 | 60 | 0.0 | 0.0 | 0.00 | 0.05 | 0.05 | 74 | 1009.7 |
| 20260504032954 | 39 | 60 | 0.0 | 0.0 | 0.00 | 0.05 | 0.05 | 73 | 1009.7 |
| 20260504032451 | 39 | 60 | 0.0 | 0.0 | 0.00 | 0.05 | 0.05 | 73 | 1009.6 |
| 20260504031948 | 40 | 62 | 0.0 | 0.0 | 0.00 | 0.05 | 0.05 | 71 | 1009.7 |
| 20260504031445 | 40 | 62 | 0.0 | 0.0 | 0.00 | 0.05 | 0.05 | 70 | 1009.5 |
| 20260504030941 | 40 | 62 | 0.0 | 0.0 | 0.00 | 0.05 | 0.05 | 70 | 1009.6 |
| 20260504030439 | 41 | 57 | 0.0 | 0.0 | 0.00 | 0.05 | 0.05 | 69 | 1009.6 |
| 20260504025934 | 42 | 147 | 0.0 | 0.0 | 0.00 | 0.05 | 0.05 | 66 | 1009.6 |
| 20260504025431 | 42 | 148 | 0.0 | 0.0 | 0.00 | 0.05 | 0.05 | 64 | 1009.4 |
| 20260504024928 | 42 | 154 | 0.0 | 1.0 | 0.00 | 0.05 | 0.05 | 64 | 1009.7 |
| 20260504024426 | 42 | 182 | 1.0 | 1.0 | 0.00 | 0.05 | 0.05 | 64 | 1009.5 |
| 20260504023922 | 42 | 183 | 0.0 | 1.0 | 0.00 | 0.05 | 0.05 | 64 | 1009.5 |
| 20260504023419 | 42 | 147 | 0.0 | 0.0 | 0.00 | 0.05 | 0.05 | 65 | 1009.4 |
| 20260504022914 | 42 | 142 | 0.0 | 0.0 | 0.00 | 0.05 | 0.05 | 65 | 1009.6 |
| 20260504022411 | 42 | 142 | 0.0 | 0.0 | 0.00 | 0.05 | 0.05 | 65 | 1009.5 |
| 20260504021908 | 42 | 142 | 0.0 | 0.0 | 0.00 | 0.05 | 0.05 | 65 | 1009.5 |
| 20260504021405 | 42 | 138 | 0.0 | 0.0 | 0.00 | 0.05 | 0.05 | 65 | 1009.5 |
| 20260504020903 | 43 | 140 | 0.0 | 0.0 | 0.00 | 0.05 | 0.05 | 64 | 1009.4 |
| 20260504020359 | 43 | 158 | 0.0 | 0.0 | 0.00 | 0.05 | 0.05 | 63 | 1009.4 |
| 20260504015855 | 43 | 158 | 0.0 | 0.0 | 0.00 | 0.05 | 0.05 | 63 | 1009.3 |
| 20260504015351 | 43 | 158 | 0.0 | 1.0 | 0.00 | 0.05 | 0.05 | 61 | 1009.4 |
| 20260504014847 | 42 | 142 | 0.0 | 0.0 | 0.00 | 0.05 | 0.05 | 63 | 1009.4 |
| 20260504014343 | 42 | 138 | 0.0 | 0.0 | 0.00 | 0.05 | 0.05 | 65 | 1009.2 |
| 20260504013841 | 42 | 136 | 0.0 | 0.0 | 0.00 | 0.05 | 0.05 | 63 | 1009.2 |
| 20260504013339 | 43 | 136 | 0.0 | 0.0 | 0.00 | 0.05 | 0.05 | 62 | 1009.1 |
| 20260504012835 | 43 | 136 | 0.0 | 0.0 | 0.00 | 0.05 | 0.05 | 62 | 1009.2 |
| 20260504012333 | 43 | 136 | 0.0 | 0.0 | 0.00 | 0.05 | 0.05 | 60 | 1008.8 |
| 20260504011830 | 44 | 136 | 0.0 | 0.0 | 0.00 | 0.05 | 0.05 | 59 | 1009.2 |
| 20260504011327 | 44 | 136 | 0.0 | 0.0 | 0.00 | 0.05 | 0.05 | 58 | 1009.0 |
| 20260504010823 | 44 | 136 | 0.0 | 0.0 | 0.00 | 0.05 | 0.05 | 58 | 1009.1 |
| 20260504010318 | 44 | 136 | 0.0 | 0.0 | 0.00 | 0.05 | 0.05 | 57 | 1008.9 |
| 20260504005815 | 45 | 136 | 0.0 | 0.0 | 0.00 | 0.05 | 0.05 | 56 | 1008.9 |
| 20260504005312 | 45 | 136 | 0.0 | 0.0 | 0.00 | 0.05 | 0.05 | 55 | 1008.8 |
| 20260504004810 | 45 | 136 | 0.0 | 0.0 | 0.00 | 0.05 | 0.05 | 55 | 1008.7 |
| 20260504004307 | 46 | 136 | 0.0 | 0.0 | 0.00 | 0.05 | 0.05 | 55 | 1008.6 |
| 20260504003803 | 46 | 136 | 0.0 | 0.0 | 0.00 | 0.05 | 0.05 | 54 | 1008.7 |
| 20260504003301 | 46 | 136 | 0.0 | 0.0 | 0.00 | 0.05 | 0.05 | 54 | 1008.6 |
| 20260504002757 | 46 | 136 | 0.0 | 0.0 | 0.00 | 0.05 | 0.05 | 53 | 1008.4 |
| 20260504002254 | 47 | 136 | 0.0 | 0.0 | 0.00 | 0.05 | 0.05 | 52 | 1008.7 |
| 20260504001752 | 47 | 135 | 0.0 | 0.0 | 0.00 | 0.05 | 0.05 | 51 | 1008.4 |
| 20260504001249 | 48 | 139 | 0.0 | 0.0 | 0.00 | 0.05 | 0.05 | 50 | 1008.3 |
| 20260504000745 | 48 | 140 | 0.0 | 0.0 | 0.00 | 0.05 | 0.05 | 47 | 1008.2 |
| 20260504000242 | 49 | 134 | 0.0 | 0.0 | 0.00 | 0.05 | 0.05 | 45 | 1008.2 |
| 20260503235740 | 49 | 175 | 0.0 | 0.0 | 0.00 | 0.05 | 0.05 | 45 | 1008.1 |
| 20260503235237 | 49 | 98 | 0.0 | 0.0 | 0.00 | 0.05 | 0.05 | 44 | 1008.3 |
| 20260503234735 | 50 | 345 | 0.0 | 0.0 | 0.00 | 0.05 | 0.05 | 43 | 1008.1 |
| 20260503234233 | 50 | 95 | 0.0 | 0.0 | 0.00 | 0.05 | 0.05 | 42 | 1008.0 |
| 20260503233730 | 50 | 34 | 1.0 | 1.0 | 0.00 | 0.05 | 0.05 | 42 | 1008.1 |
| 20260503233225 | 51 | 81 | 0.0 | 1.0 | 0.00 | 0.05 | 0.05 | 41 | 1007.9 |
| 20260503232722 | 51 | 21 | 0.0 | 0.0 | 0.00 | 0.05 | 0.05 | 41 | 1008.0 |
| 20260503232220 | 51 | 229 | 3.0 | 3.0 | 0.00 | 0.05 | 0.05 | 41 | 1007.8 |
| 20260503231718 | 51 | 46 | 2.0 | 3.0 | 0.00 | 0.05 | 0.05 | 39 | 1007.8 |
| 20260503231214 | 51 | 73 | 1.0 | 2.0 | 0.00 | 0.05 | 0.05 | 39 | 1007.9 |
| 20260503230710 | 52 | 206 | 1.0 | 3.0 | 0.00 | 0.05 | 0.05 | 39 | 1007.7 |
| 20260503230208 | 52 | 258 | 0.0 | 8.0 | 0.00 | 0.05 | 0.05 | 38 | 1007.8 |
| 20260503225705 | 52 | 71 | 0.0 | 7.0 | 0.00 | 0.05 | 0.05 | 38 | 1007.5 |
| 20260503225159 | 52 | 19 | 2.0 | 4.0 | 0.00 | 0.05 | 0.05 | 37 | 1007.8 |
| 20260503224657 | 52 | 109 | 2.0 | 4.0 | 0.00 | 0.05 | 0.05 | 38 | 1007.6 |
| 20260503224154 | 52 | 101 | 1.0 | 6.0 | 0.00 | 0.05 | 0.05 | 38 | 1007.5 |
| 20260503223652 | 52 | 163 | 2.0 | 4.0 | 0.00 | 0.05 | 0.05 | 39 | 1007.5 |
| 20260503223149 | 52 | 204 | 0.0 | 4.0 | 0.00 | 0.05 | 0.05 | 40 | 1007.2 |
| 20260503222646 | 53 | 135 | 2.0 | 3.0 | 0.00 | 0.05 | 0.05 | 38 | 1007.3 |
| 20260503222143 | 53 | 170 | 0.0 | 4.0 | 0.00 | 0.05 | 0.05 | 38 | 1007.5 |
| 20260503221642 | 53 | 124 | 0.0 | 1.0 | 0.00 | 0.05 | 0.05 | 39 | 1006.9 |
| 20260503221139 | 52 | 128 | 2.0 | 6.0 | 0.00 | 0.05 | 0.05 | 37 | 1007.2 |
| 20260503220635 | 52 | 49 | 2.0 | 4.0 | 0.00 | 0.05 | 0.05 | 37 | 1007.0 |
| 20260503220132 | 52 | 259 | 1.0 | 2.0 | 0.00 | 0.05 | 0.05 | 38 | 1007.2 |
| 20260503215629 | 52 | 35 | 3.0 | 7.0 | 0.00 | 0.05 | 0.05 | 38 | 1007.0 |
| 20260503215125 | 52 | 103 | 1.0 | 3.0 | 0.00 | 0.05 | 0.05 | 36 | 1006.9 |
| 20260503214625 | 52 | 110 | 0.0 | 2.0 | 0.00 | 0.05 | 0.05 | 39 | 1006.9 |